MISR-B-1 (52949 NORAD) Tracking and Keplerian Element Data

This shows tracking and keplerian element data for the satellite.

Feedback or suggestion? Click here.




ElementValue
Catalog52949
NameMISR-B-1
Epoch Orbit1307
Epoch Day268.98524454
Epoch Year2022
RAAN12.2304
Inclination44.9938
Eccentricity0.0004481
Argument of Perigee351.0564
Mean Anonmoly9.0238
Mean Motion15.25222677
Decay Rate0.00015555
L11 52949U 22074F 22268.98524454 .00015555 00000+0 61783-3 0 9993
L22 52949 44.9938 12.2304 0004481 351.0564 9.0238 15.25222677 13073

Live tracking and technical data element details for MISR-B-1 (NORAD 52949). MISR-B-1 can be tracked NOW for your location showing map with azimuth and elevation plus other details from your city location.

Track the satellite on the map from your city or location and see movement details for azimuth, elevation, latitude, longitude, range, height, and movement on the map or in text.







IsCatalogInMostPopularTable: catalog: 52949, numindb: 8
Update: records affected: 1



GetName: 52949 MISR-B-1

Hit Count: updated at: Thu, 06 Oct 2022 05:14:18 GMT